[[{"header":{"parameterUnit":"m.s-1","parameterCategory":1,"la1":30.2991,"la2":30.254,"lo1":-89.0895,"lo2":-89.0444,"dy":0.0017,"dx":0.0017,"nx":28,"ny":28,"refTime":"2024-05-19T03:00:00:Z","depth":0,"parameterNumber":2,"parameterNumberName":"U-component_of_WINDS"},"data":[0,0,0,0,0,0,0,0,0,0,0,0,0,0,0,0,0,0,0,0,0,0,0,0,0,0,0,0,0,0,0,0,0,0,0,0,0,0,0,0,0,0,0,0,0,0,0,0,0,0,0,0,0,0,0,0,0,0,2.0994,2.0995,0,2.109,2.1091,2.1092,2.112,2.1119,2.1119,2.1118,2.122,2.1223,2.1226,0,0,0,0,0,0,0,0,0,0,0,0,0,2.0835,2.0838,2.0993,2.0995,2.0996,2.109,2.1091,2.1093,2.112,2.1119,2.1119,2.1118,2.1219,2.1222,2.1226,0,0,0,0,0,0,0,0,0,0,0,0,0,2.0915,2.0839,2.0993,2.1021,2.1024,2.109,2.1091,2.1093,2.112,2.1119,2.1119,2.1118,2.1217,2.1222,2.1227,2.1272,0,0,2.1241,2.1243,0,0,0,0,0,0,0,0,2.091,2.0921,2.1016,2.1019,2.1023,2.1092,2.1073,2.1153,2.112,2.1084,2.1118,2.1117,2.1178,2.1186,2.1206,2.1277,2.1281,2.1242,2.1245,2.1247,2.1248,0,0,0,0,0,0,0,2.0905,2.0917,2.1032,2.1017,2.1021,2.1029,2.104,2.1088,2.1134,2.1087,2.1089,2.11,2.118,2.1201,2.1208,2.1283,2.1242,2.1246,2.1249,2.1251,2.1396,2.1397,0,0,0,0,0,0,2.0894,2.0912,2.1029,2.1035,2.0963,2.1033,2.1044,2.1071,2.1134,2.1143,2.1101,2.1101,2.1193,2.1203,2.1212,2.1269,2.1247,2.1251,2.1254,2.1395,2.1396,2.1398,0,0,0,0,0,0,2.0891,2.0904,2.1025,2.0974,2.099,2.1036,2.1066,2.1073,2.1094,2.1144,2.1153,2.1114,2.1193,2.1205,2.1257,2.1273,2.1253,2.1258,2.1394,2.1396,2.1397,2.1384,0,0,0,0,0,0,2.0886,2.0903,2.092,2.0974,2.0992,2.1067,2.1067,2.1076,2.1102,2.1104,2.1159,2.1167,2.1193,2.125,2.1262,2.1279,2.1261,2.1393,2.1395,2.1397,2.1383,2.1385,2.1386,0,0,0,0,0,2.088,2.0913,2.0921,2.0935,2.1015,2.1068,2.1079,2.1107,2.1104,2.1121,2.1154,2.1165,2.127,2.1255,2.1268,2.1288,2.1392,2.1394,2.1396,2.1382,2.1384,2.1386,0,0,0,0,0,0,2.086,2.0921,2.093,2.0981,2.1019,2.1072,2.1096,2.1109,2.1149,2.1149,2.1184,2.1196,2.1245,2.1272,2.1254,2.1335,2.1331,2.1336,2.1316,2.1318,2.1319,2.1311,2.1265,0,0,0,0,0,2.0862,2.0899,2.095,2.0991,2.1009,2.1049,2.1074,2.1093,2.1134,2.115,2.1186,2.1226,2.1268,2.1295,2.1336,2.1387,2.14,2.1408,2.1409,2.141,2.1414,2.1443,2.1447,2.1405,2.1405,2.1405,0,0,2.0865,2.0903,2.0925,2.0987,2.1019,2.1058,2.1063,2.1103,2.1132,2.1157,2.1207,2.1235,2.1282,2.1333,2.1358,2.1357,2.1428,2.1413,2.1413,2.1417,2.1445,2.1449,2.1453,2.1406,2.1406,2.1406,0,0,2.0891,2.0924,2.096,2.0992,2.104,2.1066,2.1075,2.1127,2.1146,2.1197,2.1216,2.1252,2.1323,2.1356,2.1381,2.142,2.1432,2.1433,2.144,2.1468,2.1471,2.1474,2.1488,2.1492,2.1437,2.1437,2.1437,0,2.089,2.0948,2.0978,2.1017,2.1044,2.1068,2.1105,2.1135,2.1194,2.1213,2.1211,2.1301,2.1334,2.1393,2.1403,2.1423,2.1435,2.1426,2.1468,2.1472,2.1475,2.1488,2.1493,2.1436,2.1436,2.1436,2.1436,0,2.0943,2.0983,2.1007,2.1063,2.1093,2.1131,2.1168,2.1195,2.1212,2.1238,2.129,2.1331,2.1381,2.1397,2.1414,2.1459,2.1456,2.1461,2.1458,2.1478,2.1491,2.1496,2.1436,2.1436,2.1436,2.1436,0,0,2.0958,2.103,2.1038,2.1063,2.1118,2.115,2.119,2.1238,2.126,2.13,2.1335,2.1395,2.1399,2.1429,2.145,2.1474,2.1501,2.1476,2.1478,2.1479,2.1553,2.1548,2.1553,2.151,2.1512,2.1512,2.1548,0,2.099,2.1061,2.1089,2.1147,2.1184,2.1207,2.1242,2.128,2.1306,2.1342,2.1372,2.1414,2.1417,2.1435,2.146,2.1493,2.1517,2.1491,2.1543,2.1544,2.1529,2.156,2.1555,2.1586,2.1553,2.1554,2.1555,0,2.1036,2.1076,2.1137,2.1187,2.1204,2.1234,2.128,2.1315,2.1358,2.1376,2.1409,2.1428,2.1472,2.1466,2.1526,2.1508,2.1531,2.155,2.1552,2.1557,2.155,2.1565,2.1597,2.1602,2.1563,2.1563,2.1562,0,2.104,2.1109,2.1154,2.1175,2.1235,2.1256,2.1282,2.1324,2.1351,2.1392,2.141,2.1456,2.1481,2.1516,2.1548,2.1541,2.1605,2.1602,2.1621,2.162,2.1632,2.1631,2.1668,2.1649,2.1649,2.1649,2.1648,0,2.1072,2.1108,2.1156,2.1184,2.1225,2.1259,2.1299,2.1327,2.1365,2.1399,2.1422,2.1454,2.1494,2.1531,2.1557,2.1603,2.1614,2.163,2.1636,2.1627,2.1625,2.1642,2.164,2.165,2.165,2.1649,2.1649,0,2.1082,2.1116,2.1167,2.1219,2.1233,2.1261,2.1306,2.1334,2.1362,2.1405,2.1417,2.1461,2.1506,2.1541,2.16,2.1617,2.1665,2.1672,2.1649,2.1652,2.1669,2.1666,2.1717,2.1725,2.1701,2.1702,2.1702,0,2.1099,2.1128,2.1183,2.1207,2.1232,2.1271,2.1298,2.1333,2.136,2.1412,2.1434,2.148,2.1519,2.159,2.1627,2.1672,2.168,2.1695,2.1687,2.1677,2.168,2.1677,2.168,2.1696,2.1696,2.1696,2.1696,0,2.1126,2.1142,2.118,2.1224,2.1256,2.1293,2.133,2.1349,2.139,2.142,2.1465,2.1495,2.1555,2.1601,2.165,2.1678,2.1694,2.1698,2.1705,2.1695,2.1681,2.1688,2.1651,2.1697,2.1697,2.1696,2.1696,2.1696,2.114,2.1166,2.1209,2.1251,2.1283,2.1317,2.1346,2.1377,2.1415,2.1466,2.1484,2.1531,2.1574,2.1641,2.1669,2.1707,2.1708,2.1718,2.172,2.1722,2.172,2.1675,2.1716,2.1716,2.1716,2.1716,2.1716,0,2.1168,2.1197,2.1235,2.1286,2.1319,2.1331,2.1373,2.14,2.144,2.1479,2.1516,2.1569,2.1613,2.1654,2.1701,2.1723,2.1732,2.1734,2.1732,2.1738,2.1717,2.1706,2.1726,2.1726,2.1726,2.1726,2.1726,2.1726,2.1186,2.123,2.1251,2.1311,2.134,2.1385,2.1408,2.144,2.1471,2.1528,2.1565,2.1591,2.1631,2.1681,2.1723,2.1734,2.1749,2.175,2.1762,2.1741,2.174,2.1738,2.1728,2.1753,2.1753,2.1781,2.1781,2.1781]},{"header":{"parameterUnit":"m.s-1","parameterCategory":1,"la1":30.2991,"la2":30.254,"lo1":-89.0895,"lo2":-89.0444,"dy":0.0017,"dx":0.0017,"nx":28,"ny":28,"refTime":"2024-05-19T03:00:00:Z","depth":0,"parameterNumber":3,"parameterNumberName":"V-component_of_WINDS"},"data":[0,0,0,0,0,0,0,0,0,0,0,0,0,0,0,0,0,0,0,0,0,0,0,0,0,0,0,0,0,0,0,0,0,0,0,0,0,0,0,0,0,0,0,0,0,0,0,0,0,0,0,0,0,0,0,0,0,0,2.9823,2.9822,0,2.9762,2.9761,2.976,2.9693,2.9692,2.9691,2.969,2.9626,2.9625,2.9624,0,0,0,0,0,0,0,0,0,0,0,0,0,2.9879,2.9879,2.9823,2.9822,2.9821,2.9762,2.9761,2.976,2.9693,2.9692,2.969,2.9689,2.9626,2.9625,2.9624,0,0,0,0,0,0,0,0,0,0,0,0,0,2.984,2.9878,2.9823,2.9781,2.9776,2.9762,2.9761,2.976,2.9693,2.9692,2.969,2.9689,2.9627,2.9625,2.9624,2.9646,0,0,2.9621,2.962,0,0,0,0,0,0,0,0,2.9843,2.9838,2.9788,2.9783,2.9778,2.9733,2.9757,2.9722,2.9693,2.9725,2.969,2.9688,2.9663,2.9659,2.965,2.9643,2.9641,2.9621,2.962,2.9619,2.9619,0,0,0,0,0,0,0,2.9845,2.984,2.9799,2.9787,2.9781,2.9764,2.9757,2.975,2.9703,2.9722,2.9717,2.971,2.966,2.9652,2.9648,2.964,2.9621,2.962,2.9619,2.9618,2.9646,2.9647,0,0,0,0,0,0,2.9855,2.9843,2.98,2.9797,2.9808,2.9764,2.9756,2.9749,2.9703,2.9694,2.9712,2.9708,2.9654,2.965,2.9646,2.9667,2.9619,2.9618,2.9618,2.9644,2.9646,2.9648,0,0,0,0,0,0,2.9856,2.9852,2.9803,2.9819,2.9811,2.9765,2.9758,2.9749,2.974,2.9695,2.9686,2.9712,2.9653,2.9647,2.9646,2.9664,2.9618,2.9617,2.9643,2.9645,2.9647,2.9711,0,0,0,0,0,0,2.9858,2.9852,2.9861,2.9819,2.981,2.9805,2.9759,2.9749,2.9739,2.9732,2.9693,2.9685,2.9651,2.9649,2.9645,2.9661,2.9616,2.9641,2.9644,2.9646,2.9707,2.9715,2.9722,0,0,0,0,0,2.986,2.9881,2.9862,2.9857,2.982,2.9807,2.9801,2.9763,2.974,2.9748,2.9719,2.9686,2.9663,2.9649,2.9645,2.9661,2.964,2.9643,2.9646,2.9704,2.9713,2.9722,0,0,0,0,0,0,2.9926,2.9875,2.9853,2.9861,2.9839,2.9795,2.9804,2.9775,2.9758,2.9753,2.9705,2.9697,2.9701,2.9681,2.9666,2.9679,2.9646,2.9649,2.9692,2.9701,2.9708,2.9712,2.9615,0,0,0,0,0,2.9942,2.9936,2.9891,2.9903,2.9893,2.9851,2.9843,2.9815,2.979,2.978,2.9751,2.9727,2.9714,2.9706,2.9692,2.9704,2.9693,2.9713,2.972,2.9727,2.9729,2.9732,2.9739,2.9658,2.9658,2.9658,0,0,2.9974,2.9945,2.9944,2.9915,2.9895,2.9888,2.9843,2.9839,2.9833,2.9779,2.9776,2.9754,2.9724,2.9729,2.973,2.9712,2.9749,2.9731,2.9736,2.9735,2.9736,2.9744,2.9751,2.9661,2.966,2.966,0,0,3.0028,3.0007,3.0013,2.9994,2.9963,2.9934,2.9936,2.9897,2.988,2.9876,2.9835,2.9828,2.9807,2.9787,2.9774,2.982,2.9789,2.9817,2.9855,2.9858,2.9865,2.987,2.9885,2.9891,2.982,2.982,2.982,0,3.0072,3.0061,3.002,3.0018,3.0006,2.9957,2.9963,2.9946,2.9912,2.9904,2.9885,2.9857,2.9834,2.9833,2.9844,2.9836,2.9835,2.9821,2.9867,2.9872,2.9877,2.989,2.9896,2.9823,2.9823,2.9823,2.9822,0,3.0115,3.0108,3.0117,3.0086,3.0075,3.0077,3.0035,3.0029,3.0002,2.9976,2.9971,2.9942,2.992,2.9918,2.9892,2.9912,2.9902,2.9876,2.9842,2.9889,2.99,2.9905,2.9828,2.9827,2.9826,2.9825,0,0,3.0208,3.0154,3.0158,3.0143,3.0105,3.0099,3.0098,3.0077,3.0071,3.005,3.0047,3.003,3.0005,2.9991,2.9962,2.9965,3.0001,2.9938,2.9936,2.9949,3.002,3.0039,3.0046,2.9981,2.9982,2.9982,3.0022,0,3.0255,3.0251,3.0214,3.022,3.0212,3.0166,3.0165,3.0141,3.0116,3.0105,3.0077,3.0065,3.0035,3.0025,3.0027,2.9997,3.0015,2.9993,2.9976,2.9976,2.9983,3.0052,3.0072,3.0111,3.0027,3.0027,3.0028,0,3.0309,3.029,3.0295,3.0257,3.0252,3.0252,3.0229,3.022,3.0191,3.0173,3.0156,3.0124,3.0119,3.0088,3.008,3.0066,3.0057,3.0041,3.0042,3.0037,3.0004,3.0048,3.0123,3.0128,3.0035,3.0035,3.0034,0,3.0374,3.0351,3.035,3.0339,3.0294,3.0295,3.0276,3.0246,3.0236,3.0215,3.0207,3.0187,3.0175,3.016,3.0122,3.0103,3.0117,3.0084,3.01,3.0101,3.0104,3.0104,3.0177,3.0101,3.0101,3.0101,3.0101,0,3.0429,3.0433,3.0379,3.0379,3.0382,3.0339,3.0344,3.032,3.0294,3.0288,3.0247,3.0241,3.0192,3.0181,3.0152,3.0148,3.0144,3.0127,3.0119,3.013,3.0132,3.0122,3.0118,3.0102,3.0102,3.0102,3.0102,0,3.0502,3.0466,3.0462,3.042,3.041,3.0414,3.0377,3.0375,3.0347,3.0339,3.0335,3.0292,3.0276,3.0237,3.0212,3.0191,3.0195,3.0181,3.0205,3.0199,3.0217,3.0216,3.0285,3.0291,3.0214,3.0214,3.0215,0,3.0538,3.0541,3.0499,3.0492,3.0475,3.0464,3.0453,3.0411,3.0401,3.0369,3.037,3.0351,3.0333,3.031,3.0276,3.0256,3.024,3.0265,3.0236,3.0247,3.0238,3.0238,3.0237,3.0271,3.0272,3.0273,3.0274,0,3.0606,3.0588,3.0574,3.0553,3.0541,3.0523,3.0502,3.0498,3.0451,3.0442,3.0425,3.0412,3.0385,3.0367,3.0341,3.032,3.0289,3.0284,3.0286,3.0297,3.0309,3.0301,3.0221,3.0282,3.0281,3.0281,3.028,3.028,3.066,3.066,3.063,3.0616,3.0596,3.0577,3.0572,3.0544,3.053,3.0506,3.0482,3.0468,3.0438,3.04,3.0382,3.0369,3.0353,3.0357,3.0358,3.0359,3.0363,3.0313,3.0365,3.0364,3.0364,3.0364,3.0364,0,3.0725,3.0703,3.069,3.0663,3.0651,3.0624,3.0599,3.059,3.0579,3.0554,3.0538,3.0519,3.05,3.0464,3.0442,3.0439,3.0424,3.0434,3.0433,3.0429,3.038,3.0379,3.0447,3.0447,3.0447,3.0447,3.0447,3.0447,3.0757,3.0754,3.0732,3.0719,3.0697,3.0683,3.0672,3.0654,3.0634,3.0614,3.0599,3.0576,3.0546,3.0522,3.0503,3.0493,3.0486,3.0501,3.0486,3.044,3.0432,3.0425,3.0424,3.05,3.05,3.0535,3.0536,3.0536]}]]